AirNav   Pilot Hours Calculator
 
 903 users online  

KBNG Banning Municipal Airport
Banning, California, USA

GOING TO BANNING?


FAA INFORMATION EFFECTIVE 05 DECEMBER 2019

Location

FAA Identifier: BNG
Lat/Long: 33-55-21.2000N 116-51-03.5000W
33-55.353333N 116-51.058333W
33.9225556,-116.8509722
(estimated)
Elevation: 2222.4 ft. / 677.4 m (surveyed)
Variation: 14E (1985)
From city: 1 mile SE of BANNING, CA
Time zone: UTC -8 (UTC -7 during Daylight Saving Time)
Zip code: 92220

Airport Operations

Airport use: Open to the public
Activation date: 04/1940
Control tower: no
ARTCC: LOS ANGELES CENTER
FSS: RIVERSIDE FLIGHT SERVICE STATION
NOTAMs facility: RAL (NOTAM-D service available)
Attendance: MON-FRI 0900-1530
FOR ARPT ATTENDANT CALL (951) 922-3320.
Wind indicator: lighted
Segmented circle: yes
Lights: ACTVT MIRL RWY 08/26 - CTAF.
Beacon: white-green (lighted land airport)
Operates sunset to sunrise.

Airport Communications

CTAF/UNICOM: 122.8
WX AWOS-3: 134.625 (951-922-4674)
WX AWOS-3 at HMT (14 nm SW): 118.375 (951-925-6886)
WX ASOS at PSP (18 nm E): PHONE 760-322-7597

Nearby radio navigation aids

VOR radial/distance  VOR name  Freq  Var
HDFr048/(18.8)HOMELAND VOR113.4014E
PSPr266/21.2PALM SPRINGS VORTAC115.5013E
RALr080/(29.9)RIVERSIDE VOR112.4014E
PDZr075/33.8PARADISE VORTAC112.2015E
TRMr284/38.7THERMAL VORTAC116.2013E

Airport Services

Fuel available: 100LL
FUEL AVBL WITH 24 HR SELF SVC CREDIT CARD. FUEL APN NOT LEVEL AND ACFT MAY NOT FILL COMPLETELY.
Parking: tiedowns
Airframe service: NONE
Powerplant service: NONE
Bottled oxygen: NONE
Bulk oxygen: NONE

Runway Information

Runway 8/26

Dimensions: 4955 x 100 ft. / 1510 x 30 m
Surface: asphalt, in fair condition
Weight bearing capacity: 
Single wheel: 12.5
Runway edge lights: medium intensity
Gradient: WEST
RUNWAY 8  RUNWAY 26
Latitude: 33-55.356430N33-55.349927N
Longitude: 116-51.548577W116-50.568532W
Elevation: 2222.4 ft.2103.8 ft.
Traffic pattern: leftright
Markings: basic, in fair conditionbasic, in fair condition
Visual slope indicator: 2-light PAPI on left (3.50 degrees glide path)
Touchdown point: yes, no lightsyes, no lights

Airport Ownership and Management from official FAA records

Ownership: Publicly-owned
Owner: CITY OF BANNING
P.O. BOX 998
BANNING, CA 92220
Phone (951) 922-3105
Manager: CARL SZOYKA
176 EAST LINCOLN STREET, PO BOX 998
BANNING, CA 92220-0998
Phone 951-922-3286

Airport Operational Statistics

Aircraft based on the field: 16
Single engine airplanes: 15
Helicopters: 1
    
Aircraft operations: avg 109/week *
75% transient general aviation
25% local general aviation
* for 12-month period ending 31 December 2018

Additional Remarks

NO INTERSECTION TAKEOFFS TO THE WEST.
RY 08/26 NO STRAIGHT-IN LANDINGS.
RWY 26 AFTER TAKEOFF AVOID OVERFLYING HOUSES 4 MILES WEST.
FOR CD CTC LOS ANGELES ARTCC AT 661-575-2079.

Instrument Procedures

There are no published instrument procedures at KBNG.

Some nearby airports with instrument procedures:

KHMT - Hemet-Ryan Airport (14 nm SW)
KREI - Redlands Municipal Airport (18 nm NW)
KPSP - Palm Springs International Airport (18 nm E)
KRIV - March Air Reserve Base (20 nm W)
L35 - Big Bear City Airport (20 nm N)
 
Loc | Ops | Rwys | IFR | FBO | Links
Com | Nav | Svcs | Stats | Notes

San Bernardino International Airport Authority
 
Area around KBNG (Banning Municipal Airport)
 
Road maps at: MapQuest Bing Google
 
Aerial photo
WARNING: Photo may not be current or correct
Aerial photo of KBNG (Banning Municipal Airport)
Photo taken 30-Oct-2013
looking southwest.

Do you have a better or more recent aerial photo of Banning Municipal Airport that you would like to share? If so, please send us your photo.

 
Sectional chart

 
Airport distance calculator
Flying to Banning Municipal Airport? Find the distance to fly.

From to KBNG

Sunrise and sunset
Times for 08-Dec-2019
 Local
(UTC-8)
 Zulu
(UTC)
Morning civil twilight06:1414:14
Sunrise06:4114:41
Sunset16:3700:37
Evening civil twilight17:0501:05

Current date and time
Zulu (UTC)  09-Dec-2019 05:16:46
Local (UTC-8)  08-Dec-2019 21:16:46
 
METAR
KHMT 
14nm SW 
090455Z AUTO 22005KT 10SM SCT023 SCT033 SCT070 11/11 A3001 RMK AO2 T01110108
KPSP 
19nm E 
090453Z 00000KT 6SM -RA BR BKN050 OVC070 16/13 A2997 RMK AO2 RAB18 SLP150 P0002 T01560133
KL35 
20nm N 
090455Z AUTO 00000KT 10SM SCT003 SCT007 OVC019 00/00 A3002 RMK AO2 P0002
KRIV 
21nm W 
090458Z 00000KT 10SM SCT007 BKN010 11/11 A3000 RMK AO2A SLP156 T01070107
KSBD 
22nm NW 
090450Z 24003KT 7SM FEW017 SCT050 13/10 A3001 RMK LAST
KF70 
25nm SW 
090455Z AUTO 17003KT 10SM CLR 11/11 A3001 RMK AO1
TAF
KPSP 
19nm E 
081720Z 0818/0918 VRB04KT 5SM HZ FEW050 OVC120 FM082100 33010KT P6SM SCT120 BKN250 FM090600 VRB05KT P6SM SKC
KRIV 
21nm W 
090405Z 0904/1010 31006KT 9999 VCSH SCT007 BKN012 BKN025 QNH2999INS TEMPO 0904/0910 BKN007 BKN010 OVC020 BECMG 0910/0911 15006KT 9999 NSW BKN010 OVC020 QNH3003INS TEMPO 0911/0914 BKN007 OVC012 BECMG 0915/0916 VRB06KT 9999 SCT010 BKN030 QNH3008INS BECMG 0918/0919 34009KT 9999 FEW050 FEW250 520204 QNH3008INS TEMPO 0920/1001 35012G18KT BECMG 1002/1003 VRB06KT 9999 FEW250 QNH3011INS TX17/0922Z TN09/0912Z
KSBD 
22nm NW 
081720Z 0818/0918 VRB04KT 3SM BR VCSH SCT006 BKN012 OVC030 TEMPO 0818/0821 BKN006 FM082100 25008KT 5SM BR VCSH SCT015 BKN030 FM090300 VRB05KT 4SM BR VCSH BKN015 OVC025 FM091200 VRB04KT P6SM SCT015
NOTAMs
Click for the latest NOTAMs
NOTAMs are issued by the DoD/FAA and will open in a separate window not controlled by AirNav.

 

 
 

FBO, Fuel Providers, and Aircraft Ground Support

  
 Business Name 
 
 Contact 
 
 Services / Description 
 
Fuel Prices
 
Comments
  
City of Banning 951-922-3320
no information available

If you are affiliated with City of Banning and would like to show here your services, contact info, web link, logo, and more, click here
100LL
PS $4.67 
 Updated 29-Nov-2019
 
   1 read write
PS=Pump service
Update Fuel Prices
 

Would you like to see your business listed on this page?

 If your business provides an interesting product or service to pilots, flight crews, aircraft, or users of the Banning Municipal Airport, you should consider listing it here.  To start the listing process, click on the button below
 
Add a business
 

Other Pages about Banning Municipal Airport

www.ci.banning.ca.us/...
 
Update a link
 
Copyright © AirNav, LLC. All rights reserved. Privacy Policy  Contact